Weather History for EBCI - December, 2013

Change the Weather History Date:

Thursday, December 5, 2013

  Actual Average Record
Temperature  
Mean Temperature 38 °F -  
Max Temperature 45 °F 40 °F 59 °F (2006)
Min Temperature 30 °F 32 °F 28 °F (1997)
Degree Days  
Heating Degree Days 28    
Moisture  
Dew Point 33 °F    
Average Humidity 85    
Maximum Humidity 100    
Minimum Humidity 50    
Precipitation  
Precipitation 0.03 in - - ()
Sea Level Pressure  
Sea Level Pressure 30.22 in    
Wind  
Wind Speed 11 mph ()    
Max Wind Speed 29 mph    
Max Gust Speed 43 mph    
Visibility 4.1 miles    
Events Fog , Rain    
Averages and records for this station are not official NWS values.
T = Trace of Precipitation, MM = Missing Value Source: Averaged Metar Reports

Daily Weather History Graph

Daily Weather History Graph

Search for Another Location

Airport or City:

Trip Planner

Search our weather history database for the weather conditions in past years. The results will help you decide how hot, cold, wet, or windy it might be!

Date:

Astronomy

Dec. 05, 2013 Rise Set
Actual Time 8:26 AM CET 4:39 PM CET
Civil Twilight 7:47 AM CET 5:17 PM CET
Nautical Twilight 7:06 AM CET 5:59 PM CET
Astronomical Twilight 6:26 AM CET 6:38 PM CET
Moon 10:25 AM CET (12/5) 7:50 PM CET (12/5)
Length of Visible Light 9h 29m
Length of Day
8h 13m
Waxing Crescent, 9% of the Moon is Illuminated
Dec 5
Waxing Crescent
Dec 9
First Quarter
Dec 17
Full
Dec 25
Last Quarter
Jan 1
New

Hourly Weather History & Observations

Time (CET) Temp. Windchill Dew Point Humidity Pressure Visibility Wind Dir Wind Speed Gust Speed Precip Events Conditions
12:20 AM 37.4 °F 34.9 °F 37.4 °F 100% 30.45 in 3.1 mi West 3.5 mph - N/A   Mist
12:50 AM 37.4 °F 33.8 °F 35.6 °F 93% 30.42 in 2.8 mi West 4.6 mph - N/A Fog Fog
1:00 AM 36 °F - 36 °F 99% 30.47 in 3 mi West 4.5 mph - - Fog Patches of Fog
1:20 AM 35.6 °F 31.7 °F 35.6 °F 100% 30.42 in 2.8 mi WSW 4.6 mph - N/A Fog Fog
1:50 AM 33.8 °F 27.7 °F 33.8 °F 100% 30.42 in 2.8 mi WSW 6.9 mph - N/A Fog Fog
2:20 AM 33.8 °F 27.7 °F 33.8 °F 100% 30.42 in 0.7 mi WSW 6.9 mph - N/A Fog Patches of Fog
2:50 AM 33.8 °F 27.7 °F 33.8 °F 100% 30.42 in 0.2 mi SW 6.9 mph - N/A Fog Fog
3:20 AM 30.2 °F 23.4 °F 30.2 °F 100% 30.42 in 0.2 mi SSW 6.9 mph - N/A Fog Light Freezing Fog
3:50 AM 30.2 °F 23.4 °F 30.2 °F 100% 30.39 in 0.1 mi SSW 6.9 mph - N/A Fog Light Freezing Fog
4:00 AM 30 °F - 30 °F 100% 30.45 in 0 mi SSW 6.7 mph - - Fog Fog
4:20 AM 32.0 °F 25.6 °F 30.2 °F 93% 30.39 in 0.1 mi SW 6.9 mph - N/A Fog Light Freezing Fog
4:50 AM 32.0 °F 25.6 °F 30.2 °F 93% 30.39 in 0.1 mi SSW 6.9 mph - N/A Fog Light Freezing Fog
5:20 AM 32.0 °F 25.6 °F 30.2 °F 93% 30.39 in 0.1 mi SSW 6.9 mph - N/A Fog Light Freezing Fog
5:50 AM 32.0 °F 25.6 °F 30.2 °F 93% 30.39 in 0.1 mi SSW 6.9 mph - N/A Fog Light Freezing Fog
6:20 AM 32.0 °F 24.8 °F 32.0 °F 100% 30.36 in 0.1 mi SSW 8.1 mph - N/A Fog Light Freezing Fog
6:50 AM 32.0 °F 24.8 °F 32.0 °F 100% 30.36 in - SSW 8.1 mph - N/A Fog Light Freezing Fog
7:00 AM 32 °F - 31 °F 96% 30.42 in 0 mi SSW 8.9 mph - - Fog Partial Fog
7:20 AM 32.0 °F 23.6 °F 30.2 °F 93% 30.36 in - SSW 10.4 mph - N/A Fog Light Freezing Fog
7:50 AM 32.0 °F 24.2 °F 30.2 °F 93% 30.33 in 0.5 mi SSW 9.2 mph - N/A Fog Light Freezing Fog
8:20 AM 32.0 °F 23.6 °F 32.0 °F 100% 30.33 in 0.3 mi SSW 10.4 mph - N/A Fog Light Freezing Fog
8:50 AM 32.0 °F 23.0 °F 32.0 °F 100% 30.30 in - SSW 11.5 mph - N/A Fog Light Freezing Fog
9:20 AM 32.0 °F 22.5 °F 32.0 °F 100% 30.30 in 1.2 mi SSW 12.7 mph - N/A   Mostly Cloudy
9:50 AM 33.8 °F 24.3 °F 32.0 °F 93% 30.30 in 1.9 mi SW 13.8 mph - N/A   Scattered Clouds
10:00 AM 33 °F - 32 °F 92% 30.35 in 2 mi SW 13.4 mph - -   Mist
10:20 AM 35.6 °F 26.2 °F 33.8 °F 93% 30.30 in 3.7 mi SW 15.0 mph - N/A   Scattered Clouds
10:50 AM 37.4 °F 27.8 °F 33.8 °F 87% 30.27 in 4.3 mi SW 17.3 mph - N/A   Partly Cloudy
11:20 AM 37.4 °F 27.5 °F 33.8 °F 87% 30.24 in 5.6 mi SW 18.4 mph - N/A   Partly Cloudy
11:50 AM 37.4 °F 26.9 °F 33.8 °F 87% 30.21 in 6.2 mi SW 20.7 mph - N/A   Partly Cloudy
12:20 PM 37.4 °F 26.6 °F 33.8 °F 87% 30.18 in 6.2 mi SW 21.9 mph - N/A   Partly Cloudy
12:50 PM 39.2 °F 30.2 °F 33.8 °F 81% 30.18 in 6.2 mi SW 17.3 mph - N/A   Partly Cloudy
1:00 PM 39 °F - 34 °F 77% 30.22 in 9 mi SW 17.9 mph - -   Partly Cloudy
1:20 PM 41.0 °F 31.1 °F 33.8 °F 76% 30.15 in 6.2 mi SW 23.0 mph - N/A   Partly Cloudy
1:50 PM 41.0 °F 30.9 °F 35.6 °F 81% 30.09 in - SW 24.2 mph 35.7 mph N/A   Clear
2:20 PM 41.0 °F 30.5 °F 35.6 °F 81% 30.06 in - SW 26.5 mph 38.0 mph N/A   Clear
2:50 PM 41.0 °F 30.5 °F 35.6 °F 81% 30.04 in 6.2 mi SW 26.5 mph 39.1 mph N/A   Partly Cloudy
3:20 PM 41.0 °F 30.2 °F 35.6 °F 81% 30.04 in 6.2 mi SW 27.6 mph 39.1 mph N/A   Partly Cloudy
3:50 PM 42.8 °F 32.7 °F 35.6 °F 76% 30.01 in 6.2 mi SW 27.6 mph 40.3 mph N/A Rain Light Rain Showers
4:00 PM 42 °F - 36 °F 73% 30.05 in 12 mi SW 26.8 mph - - Rain Light Rain Showers
4:20 PM 42.8 °F 32.7 °F 37.4 °F 81% 30.01 in 6.2 mi WSW 27.6 mph - N/A   Mostly Cloudy
4:50 PM 42.8 °F 32.5 °F 37.4 °F 81% 30.01 in 6.2 mi WSW 28.8 mph 42.6 mph N/A   Mostly Cloudy
5:20 PM 42.8 °F 32.9 °F 37.4 °F 81% 30.01 in 6.2 mi WSW 26.5 mph 38.0 mph N/A   Mostly Cloudy
5:50 PM 42.8 °F 32.5 °F 39.2 °F 87% 30.01 in 5.6 mi WSW 28.8 mph - N/A Rain Light Rain Showers
6:20 PM 44.6 °F 35.1 °F 39.2 °F 81% 30.01 in 6.2 mi WSW 27.6 mph - N/A   Mostly Cloudy
6:50 PM 44.6 °F 35.5 °F 41.0 °F 87% 29.98 in 6.2 mi WSW 25.3 mph - N/A   Mostly Cloudy
7:00 PM 45 °F - 41 °F 79% 30.01 in 9 mi WSW 24.6 mph - - Rain Light Rain Showers
7:20 PM 44.6 °F 37.8 °F 41.0 °F 87% 30.04 in 4.3 mi WNW 15.0 mph 35.7 mph N/A Rain Light Rain
7:50 PM 44.6 °F 37.4 °F 37.4 °F 76% 30.04 in 6.2 mi WNW 16.1 mph 34.5 mph N/A Rain Light Rain
8:20 PM 44.6 °F 37.4 °F 35.6 °F 71% 30.06 in 6.2 mi WNW 16.1 mph - N/A   Partly Cloudy
8:50 PM 42.8 °F 36.2 °F 28.4 °F 57% 30.06 in 6.2 mi NW 12.7 mph - N/A   Partly Cloudy
9:20 PM 41.0 °F 34.7 °F 28.4 °F 61% 30.06 in - WNW 10.4 mph - N/A   Clear
9:50 PM 41.0 °F 34.3 °F 28.4 °F 61% 30.09 in - WNW 11.5 mph - N/A   Clear
10:00 PM 40 °F - 28 °F 50% 30.12 in 16 mi WNW 11.2 mph - -   Partly Cloudy
10:20 PM 39.2 °F 32.5 °F 26.6 °F 61% 30.09 in - WNW 10.4 mph - N/A   Clear
10:50 PM 39.2 °F 33.6 °F 28.4 °F 65% 30.09 in - West 8.1 mph - N/A   Clear
11:20 PM 39.2 °F 33.6 °F 28.4 °F 65% 30.09 in - West 8.1 mph - N/A   Clear
11:50 PM 39.2 °F 32.5 °F 30.2 °F 70% 30.12 in - West 10.4 mph - N/A   Clear